GFSGBSN_700_temp_024.txt.gz
Temp
4 4 4 4 4 4 4 4 4 5 5 5 5 5 5 5 5 5 5 5 5 5 5 5 5 5 5 5 5 6 7 7 7 7 7 7 8 8 9 9 9 9 10 9 9 9 9
4 3 3 4 4 4 4 4 5 4 5 5 5 5 5 5 5 5 5 5 5 5 5 5 5 5 5 5 5 6 7 6 7 7 7 8 8 8 9 9 9 9 9 9 9 8 8
4 3 3 3 3 4 4 4 4 4 5 5 5 4 5 5 5 4 4 5 5 5 5 5 5 5 5 5 5 6 6 6 7 7 7 8 8 9 9 9 9 9 9 9 9 9 9
3 3 3 3 3 4 4 4 4 4 4 4 4 4 4 4 4 4 4 5 5 4 5 5 5 5 5 5 6 6 6 6 7 7 8 8 8 9 9 9 9 9 8 8 9 8 9
3 3 3 3 3 3 4 4 4 4 4 4 4 4 4 4 4 4 4 4 4 4 5 5 5 5 5 6 6 6 6 7 7 7 8 8 8 9 9 9 9 9 9 8 8 9 9
3 3 3 3 3 3 3 3 4 4 4 4 4 4 4 4 4 4 4 4 4 4 5 5 5 5 5 6 6 6 7 7 8 8 8 8 9 9 8 9 9 9 9 9 9 9 8
2 3 2 3 3 3 3 3 3 4 3 4 4 4 4 4 4 4 4 4 4 5 5 6 5 5 6 6 6 7 7 8 8 8 8 8 8 8 8 9 9 9 10 9 9 9 9
2 2 3 3 3 2 3 3 3 3 3 3 4 4 4 3 3 3 3 3 4 5 5 5 5 6 6 6 6 7 7 7 8 8 8 8 8 8 8 9 9 9 9 9 9 9 9
2 2 2 3 2 2 2 2 3 3 3 3 4 3 3 3 3 3 3 4 4 4 5 5 5 6 6 6 6 7 7 7 8 8 7 7 8 8 8 8 9 8 8 8 8 8 8
2 2 2 2 2 2 2 2 2 3 3 3 3 3 3 3 3 2 3 4 4 4 5 5 5 6 6 6 6 6 7 7 7 8 8 8 8 8 8 8 8 8 7 7 8 8 8
2 2 2 2 2 2 2 2 2 2 3 3 3 3 3 3 3 3 4 4 4 5 2 6 5 6 6 6 7 7 7 7 8 7 8 7 7 7 7 7 7 7 7 7 7 7 7
2 1 2 2 2 2 2 2 2 2 2 2 3 3 3 3 3 4 4 4 4 4 5 6 6 6 6 6 6 7 7 7 7 8 7 7 7 7 7 7 6 6 7 7 7 7 5
2 1 1 1 1 1 2 2 2 2 2 2 3 2 3 3 3 3 4 4 5 5 6 6 6 6 6 6 6 7 6 7 7 7 7 6 6 6 6 6 6 6 7 6 4 2 3
1 1 1 1 1 1 2 2 2 2 2 2 3 3 3 3 3 3 4 4 4 7 6 6 6 6 6 6 6 6 6 6 7 7 6 6 5 6 6 6 6 6 6 6 4 1 3
1 0 0 0 1 1 1 2 2 2 2 2 2 3 3 3 3 4 4 4 5 6 7 6 6 6 6 6 6 6 6 6 6 7 7 6 5 5 6 6 6 6 6 5 5 4 3
0 -0 0 0 1 1 1 1 1 2 2 2 2 3 3 3 3 4 4 5 5 6 6 7 6 6 6 6 6 6 6 6 6 6 6 6 5 5 5 6 6 6 5 5 5 1 3
-0 -0 -0 0 0 1 1 1 2 2 2 2 2 3 3 3 3 4 4 5 5 6 7 6 6 7 7 6 6 6 6 5 5 5 6 6 6 5 5 5 5 5 5 5 5 4 1
-0 -1 -0 -0 0 1 1 1 2 2 2 2 2 3 3 3 3 3 5 4 5 6 6 6 6 7 7 6 6 6 6 5 5 6 6 6 6 5 5 5 5 5 5 5 4 3 3
-1 -1 -0 -0 1 1 1 1 2 2 2 2 3 3 3 3 3 4 4 4 4 5 6 6 6 6 6 6 6 6 6 5 5 6 6 6 5 4 4 4 4 4 4 4 4 3 3
-1 -1 -0 -0 0 1 1 1 1 1 2 2 2 2 2 3 3 4 4 4 4 5 5 5 6 6 6 6 6 6 5 5 5 5 5 5 5 5 5 5 5 4 4 3 3 3 3
-1 -1 -1 0 0 1 1 1 1 1 2 2 2 2 2 3 3 4 3 4 4 5 4 4 5 5 5 5 5 5 5 5 5 5 5 5 5 5 4 4 4 4 4 3 3 3 2
-1 -1 -0 0 0 1 1 1 1 2 2 1 2 2 3 3 3 3 3 4 4 4 4 4 5 5 4 5 5 5 5 5 5 5 5 5 5 5 4 4 4 4 3 3 3 3 2
-1 -1 -0 -0 0 1 1 1 1 2 2 2 2 2 3 3 3 3 3 4 4 4 4 4 4 4 4 4 4 4 4 4 5 5 5 5 4 4 4 4 3 3 4 3 2 2 2
-1 -1 -0 -0 -0 0 1 1 1 2 1 1 2 2 3 3 3 3 4 4 4 4 4 4 4 4 4 4 4 3 3 3 3 3 4 4 4 3 3 2 -3 4 4 3 2 2 2
-1 -1 -0 -0 -0 0 1 1 1 1 1 1 1 2 2 3 3 3 3 4 4 4 4 4 4 4 4 4 3 3 3 3 3 3 3 3 3 3 3 2 3 2 2 3 2 1 1
-1 -1 -0 -0 -0 0 0 1 1 1 1 1 1 2 2 3 3 3 3 3 3 3 4 4 3 4 4 3 3 3 3 3 3 2 3 2 2 2 2 1 -4 3 3 2 2 1 2
-1 -1 -1 -0 0 0 0 0 1 1 1 2 2 2 2 3 3 3 3 3 3 3 3 3 3 3 3 3 3 3 3 2 3 2 3 2 1 1 1 1 2 3 1 1 -0 1 0
-1 -1 -1 -0 0 0 0 0 1 1 1 1 1 2 2 2 3 3 2 3 3 3 3 3 2 2 3 2 2 2 2 2 2 2 3 2 2 2 0 -1 0 2 1 1 1 0 -1
-1 -1 -1 -1 -0 0 0 1 1 1 1 1 2 2 2 2 2 2 2 2 2 2 2 2 2 2 2 2 2 2 2 2 2 1 2 1 2 2 2 3 2 1 1 -0 -0 -1 -2

GFSGBSN_700_temp_030.txt.gz
Temp
4 4 5 5 5 5 5 4 4 4 4 4 4 5 5 5 5 5 5 5 5 5 5 5 5 5 5 5 5 5 6 6 6 6 6 6 6 7 7 8 8 8 9 9 9 9 8
4 4 4 5 5 5 4 4 4 4 4 4 4 5 5 5 5 5 5 4 5 5 5 5 5 5 5 5 5 6 6 6 6 6 7 7 7 7 8 8 8 9 9 9 9 9 8
4 4 4 4 4 5 4 4 3 4 4 4 4 5 5 5 5 4 5 4 5 5 5 5 5 5 5 5 5 6 6 6 6 7 7 7 7 8 8 8 8 9 9 9 8 8 8
3 3 4 4 4 4 4 4 3 3 4 4 4 5 4 4 4 4 4 4 5 5 4 5 5 5 5 4 5 6 6 6 6 7 7 7 8 8 9 8 8 8 8 8 8 8 8
2 3 3 4 4 4 3 3 3 3 4 4 4 4 4 4 4 4 4 4 4 4 4 5 5 5 5 5 5 6 6 6 7 7 7 8 8 8 8 8 8 8 8 8 8 8 8
2 2 3 3 4 3 3 3 3 3 4 4 4 4 4 4 4 4 4 4 4 4 4 4 5 5 5 5 5 6 6 6 7 7 8 8 8 8 8 8 8 8 8 8 8 8 8
1 2 2 3 3 3 3 3 3 3 4 4 4 4 3 4 4 3 3 4 4 4 4 5 5 5 5 5 5 6 6 6 7 7 7 8 8 8 8 8 8 8 9 9 8 8 8
1 1 2 3 3 3 3 3 3 3 4 4 4 4 3 4 3 3 3 3 3 4 4 5 5 5 5 5 5 6 6 6 7 7 7 8 8 8 8 8 8 9 9 8 8 8 8
-0 1 1 2 3 3 3 3 3 3 4 3 4 3 3 3 3 3 3 3 3 4 4 5 5 5 5 5 5 6 6 6 7 7 7 8 8 8 8 8 8 8 8 7 7 7 8
-0 0 1 2 2 2 2 3 3 3 3 3 3 3 3 3 2 2 2 3 4 4 4 5 5 5 5 5 5 6 6 6 7 7 7 8 7 7 8 8 8 8 7 7 7 7 7
-1 -0 1 2 2 2 2 2 3 3 3 3 3 3 3 2 2 2 3 3 3 4 2 5 5 5 5 5 6 6 6 6 7 7 8 7 7 7 7 7 7 7 7 7 7 7 6
-1 -1 0 1 1 2 2 2 2 3 3 3 3 3 2 2 2 2 3 3 4 4 4 5 5 5 5 5 5 6 6 7 7 7 7 7 7 7 7 7 6 7 6 6 6 6 4
-1 -1 -0 1 1 1 2 2 2 2 2 3 2 2 2 2 2 2 3 3 4 4 5 5 5 5 5 5 6 6 6 7 7 6 7 6 6 6 6 6 6 6 6 5 3 1 1
-2 -1 -1 0 1 1 1 1 1 1 2 2 2 2 2 2 2 2 3 3 4 4 5 5 5 5 5 5 6 6 6 6 6 7 6 6 6 6 6 6 6 6 6 6 4 -0 2
-2 -1 -2 -0 0 1 1 1 1 1 2 2 2 2 2 2 2 3 3 3 4 5 5 5 5 5 5 5 6 6 6 6 6 6 7 6 5 5 6 5 5 5 6 5 5 3 2
-1 -1 -1 0 0 0 0 0 0 1 1 2 2 2 2 2 2 3 3 4 4 5 5 5 5 5 5 5 5 5 5 6 6 6 6 6 6 5 5 5 5 5 5 5 5 1 2
-1 -1 -1 0 0 -0 -0 0 0 1 1 1 1 2 2 2 2 3 4 4 4 5 5 5 5 5 5 5 5 5 5 5 6 6 6 6 6 5 5 5 5 5 5 5 4 3 -1
-2 -2 -0 0 0 0 -0 0 -0 0 1 1 1 2 2 2 2 3 4 4 4 5 6 5 5 6 6 5 5 5 5 5 5 5 5 6 5 5 5 5 5 5 5 5 5 3 3
-2 -1 -0 0 0 0 0 -0 0 0 1 1 1 2 2 2 3 3 4 4 4 5 5 6 6 6 6 6 5 5 5 5 5 5 5 5 5 4 4 4 5 4 5 5 4 4 3
-4 -2 -1 -0 0 0 0 0 0 0 0 1 1 1 2 2 3 4 4 4 4 4 5 5 6 6 6 6 6 6 5 5 5 5 5 5 5 5 5 5 5 5 5 5 4 3 4
-3 -2 -1 -1 0 0 0 0 0 0 0 0 1 2 2 2 3 4 4 4 4 4 5 5 5 5 6 5 5 5 5 5 5 5 5 5 5 5 5 5 5 5 5 5 4 4 3
-3 -2 -1 -1 0 0 0 0 0 0 0 0 1 1 2 3 3 4 4 4 4 4 4 4 4 5 5 5 5 5 5 4 5 5 5 5 5 5 4 4 4 4 4 4 4 4 4
-3 -2 -1 -0 0 0 0 1 1 0 0 0 1 1 2 3 3 4 4 3 3 4 4 4 4 4 5 5 5 4 4 4 4 4 4 4 4 4 4 4 4 3 5 5 6 5 5
-3 -2 -1 -0 0 0 1 1 1 0 0 1 1 1 2 3 3 4 4 3 3 4 4 4 4 4 4 4 4 4 3 3 3 4 4 4 4 4 3 3 -3 5 6 5 5 5 4
-2 -1 -1 -0 -0 0 1 1 1 0 0 0 1 1 2 2 4 3 4 3 3 3 3 4 4 4 4 3 3 3 3 3 3 3 3 3 3 3 3 2 3 5 5 5 5 5 5
-2 -1 -1 -0 0 0 1 1 1 0 0 0 0 1 2 2 3 3 3 3 3 3 3 3 3 3 3 3 3 3 3 3 3 3 3 3 3 2 2 1 -5 4 5 5 4 3 4
-2 -1 -1 -0 0 0 0 1 1 0 0 0 1 1 1 2 3 2 3 3 3 3 3 3 3 3 3 3 3 3 3 3 3 3 3 3 3 2 1 0 2 4 3 3 2 4 3
-2 -1 -1 -0 -0 0 0 0 0 0 0 0 1 1 2 2 2 2 3 3 3 3 3 3 3 3 3 2 2 2 2 3 2 3 3 3 3 2 1 -0 1 3 3 2 3 2 1
-2 -1 -1 -0 -0 0 0 0 0 1 0 -0 0 1 2 2 2 2 2 2 3 3 3 3 2 2 2 2 2 2 2 2 3 2 3 2 3 2 2 3 3 2 2 1 1 1 0

GFSGBSN_700_temp_033.txt.gz
Temp
5 5 5 5 5 5 5 5 5 5 5 4 4 4 4 4 5 5 5 4 5 4 5 5 5 5 5 5 5 5 5 5 5 5 5 6 6 6 6 7 8 8 8 9 8 7 7
4 4 4 4 5 5 5 5 5 5 4 4 4 4 4 4 5 5 5 4 4 4 5 5 5 5 5 5 5 5 5 6 6 6 6 6 6 6 7 8 7 8 8 9 8 7 7
4 4 4 4 4 4 4 5 4 4 4 4 4 4 4 4 5 5 4 4 4 4 5 5 5 5 5 5 5 5 5 6 6 6 6 6 6 7 7 7 8 8 8 8 7 7 7
3 3 3 3 3 4 4 4 5 4 4 4 4 4 4 4 4 5 4 4 4 4 4 5 4 5 5 5 5 5 6 6 6 6 7 7 7 7 8 8 8 8 8 8 7 7 8
2 2 3 3 3 3 4 4 4 4 4 4 4 4 4 4 4 4 4 4 4 4 4 4 5 5 4 5 5 6 6 6 6 7 7 7 7 8 8 8 8 8 8 8 7 8 8
2 1 3 2 2 3 3 4 4 4 4 4 4 4 4 4 4 4 3 3 4 4 4 4 4 4 4 5 5 6 6 6 6 7 7 7 7 8 8 8 8 8 8 8 8 8 8
1 1 1 2 2 3 3 3 3 3 4 4 4 4 3 4 3 3 3 3 3 4 4 4 4 5 5 5 5 6 6 6 6 7 7 7 8 8 8 8 8 8 8 8 8 8 7
1 1 0 1 1 2 3 3 3 3 4 4 3 4 3 3 3 3 3 3 3 4 4 4 5 5 5 5 5 6 6 6 7 7 7 8 8 8 8 8 8 8 8 8 7 8 8
-1 -0 0 1 1 1 2 3 3 3 3 4 3 3 3 3 3 3 3 3 3 3 4 4 5 5 5 5 5 6 6 6 7 7 7 8 8 8 8 8 8 8 8 7 7 7 7
0 -1 -1 1 1 1 2 2 2 3 3 3 3 3 3 3 3 2 2 2 3 3 4 5 5 5 5 5 5 6 6 6 6 7 7 7 7 7 7 8 8 8 7 7 7 7 7
-2 -2 -1 1 1 1 2 2 2 3 3 3 3 3 3 3 2 2 2 3 3 4 2 5 5 5 5 5 5 5 6 6 6 7 7 7 7 7 7 7 7 7 7 7 7 7 7
-2 -3 -2 -1 -0 0 1 1 2 2 2 3 3 3 2 3 2 2 2 3 3 3 4 5 5 5 5 5 5 5 6 6 6 7 7 7 7 7 7 7 7 7 6 6 6 6 5
-4 -3 -2 -1 -1 -0 0 1 1 1 2 2 2 2 2 2 2 2 2 2 3 4 4 5 5 5 5 5 5 5 6 6 6 6 6 6 6 7 6 6 6 6 6 5 5 4 5
-7 -3 -2 -1 -1 -1 0 1 0 1 1 2 2 2 2 1 1 2 2 3 3 4 5 4 5 5 5 5 5 5 6 6 7 7 6 6 6 6 6 6 6 5 5 6 4 4 4
-8 -3 -3 -2 -1 -1 -0 -0 0 0 1 1 1 1 2 1 1 2 2 3 4 4 5 4 5 5 5 5 5 6 6 6 6 7 7 6 6 6 5 5 5 5 5 5 5 3 3
-8 -6 -3 -2 -2 -1 -0 -0 -1 -0 0 1 1 1 1 1 1 2 2 3 4 4 5 5 5 5 5 5 5 5 5 6 6 6 6 6 5 5 5 5 5 5 5 5 5 3 3
-8 -8 -3 -2 -4 -1 -1 -0 -1 -1 -0 0 0 1 1 1 1 2 2 3 4 4 5 5 5 5 5 5 5 5 5 5 5 6 6 6 6 5 5 5 5 5 5 5 5 4 3
-8 -7 -5 -2 -2 -2 -1 -1 -1 -1 -1 -0 0 1 1 1 1 2 3 4 4 4 5 5 5 5 5 5 5 5 5 5 5 5 5 6 5 5 5 5 5 5 5 5 5 3 3
-9 -5 -4 -3 -1 -2 -1 -1 -1 -0 -0 0 -0 1 1 1 2 2 3 4 4 4 5 5 5 5 5 5 5 5 5 5 5 5 5 5 5 5 4 4 4 4 5 5 5 4 4
-6 -5 -3 -3 -2 -2 -1 -1 -1 -0 -0 -0 -0 0 0 1 2 3 3 4 4 4 5 5 5 5 5 6 5 5 5 5 5 5 5 5 5 5 5 6 5 4 5 5 4 4 4
-6 -5 -4 -3 -3 -2 -1 -1 -1 -0 -0 -0 -0 0 1 1 2 3 3 4 3 4 5 5 5 5 6 6 5 5 5 5 5 5 4 4 4 5 5 5 5 5 5 5 5 5 4
-5 -4 -2 -3 -2 -2 -1 -1 -1 -0 -0 -0 -0 1 1 2 2 2 3 4 3 4 4 5 5 5 5 5 5 5 5 5 5 5 4 4 4 5 4 4 4 5 5 5 5 4 4
-5 -3 -3 -3 -2 -2 -1 -1 -1 -0 -0 -1 -0 1 1 2 2 2 3 4 4 3 4 4 4 4 4 5 5 5 5 4 4 4 4 4 4 4 4 4 4 3 6 5 6 6 6
-3 -3 -3 -3 -2 -1 -1 -1 -0 -0 -0 -0 0 0 1 2 2 3 3 4 4 3 4 4 4 4 4 4 4 4 4 3 3 4 4 4 4 4 4 3 1 5 6 6 6 6 6
-4 -4 -3 -2 -1 -1 -1 -0 -0 -0 -0 -0 0 0 1 2 3 3 3 3 3 3 4 4 3 4 3 3 3 3 3 3 3 3 3 3 3 3 3 2 4 5 5 5 5 5 5
-3 -3 -3 -2 -1 -1 -0 -0 -0 -0 -0 -0 0 0 1 2 2 3 3 3 3 3 3 3 3 3 3 3 3 3 3 3 3 3 3 3 3 2 2 2 0 4 5 4 4 3 4
-3 -3 -2 -1 -1 -0 0 0 0 0 -0 -0 0 0 1 1 2 3 3 3 3 3 3 3 3 3 3 3 3 3 3 3 3 3 3 3 3 2 2 1 2 4 3 3 2 3 2
-3 -2 -1 -1 -0 -0 -0 0 0 0 -0 -0 -0 0 1 1 2 2 2 3 3 3 3 3 3 3 3 2 2 2 2 2 2 2 3 3 3 3 2 1 1 3 2 2 2 1 1
-2 -2 -1 -1 -1 -0 0 0 0 0 0 0 0 0 1 1 2 2 2 2 3 3 3 3 3 3 3 2 2 2 2 2 2 2 3 2 2 2 2 3 2 2 1 1 1 0 0

GFSGBSN_700_temp_036.txt.gz
Temp
5 5 4 4 5 5 5 5 5 5 5 6 5 5 5 5 5 4 4 5 5 5 5 5 5 5 5 5 5 5 5 5 5 5 5 5 5 5 6 6 6 7 7 7 7 7 7
5 4 4 4 4 4 4 4 5 5 5 5 5 5 5 5 4 4 5 5 5 5 5 5 5 5 5 5 5 5 5 5 5 5 5 5 5 6 5 6 7 7 8 8 7 7 7
4 4 4 4 4 4 4 4 4 4 5 5 5 5 5 4 4 4 5 5 5 5 5 5 5 5 5 5 5 5 5 5 6 6 6 5 5 6 6 7 7 8 8 8 8 7 7
4 4 4 4 4 4 4 4 4 4 4 5 5 4 4 4 4 4 4 5 5 4 4 5 5 5 5 5 5 5 5 6 6 6 6 6 6 6 7 7 7 7 7 8 8 8 8
3 3 3 3 3 3 3 3 4 4 4 4 5 4 4 4 4 4 4 4 4 4 4 4 5 5 4 5 5 5 6 6 6 6 6 7 7 7 7 7 8 7 9 8 7 8 7
3 3 3 3 3 3 3 3 3 3 4 4 4 4 4 4 4 4 4 4 4 4 4 4 5 4 5 5 5 6 6 6 6 6 6 7 7 7 7 8 9 9 8 8 8 7 7
3 3 4 3 2 2 2 3 3 3 3 3 4 4 4 4 4 3 3 4 4 3 4 4 5 5 5 5 5 6 6 6 6 6 6 7 7 8 8 8 8 8 9 9 8 8 7
2 2 3 4 2 2 2 2 2 3 3 3 4 3 3 4 4 3 3 4 3 3 4 4 5 5 5 5 5 6 6 6 6 7 7 7 8 8 8 8 8 8 8 8 8 8 8
2 2 3 3 3 1 2 1 2 2 3 3 3 3 3 4 3 3 3 3 2 3 4 4 4 4 4 5 5 5 6 6 6 6 7 8 8 8 8 8 8 7 8 8 8 8 7
2 2 2 3 3 1 1 1 1 2 2 3 3 3 3 3 3 3 3 2 2 3 3 4 4 5 5 5 5 6 6 6 6 7 7 7 8 8 8 8 8 8 8 8 8 8 9
-0 1 2 2 4 1 1 0 1 2 2 2 2 3 3 3 3 3 2 2 2 3 5 5 4 5 5 5 5 5 6 6 6 6 7 7 7 7 7 7 7 7 7 7 7 8 8
-2 -1 1 2 3 1 -0 -0 0 1 2 2 2 2 2 3 2 2 2 2 2 3 5 4 5 5 5 5 5 5 5 6 6 6 7 7 7 7 7 7 7 7 7 6 6 7 8
-4 -2 -0 1 2 -1 -1 -1 -0 1 1 2 2 2 2 2 2 2 2 2 2 4 4 4 4 5 5 5 5 5 5 6 6 6 6 6 6 7 7 6 6 6 7 8 8 8 8
-6 -4 -2 0 1 -2 -2 -1 -0 1 1 1 1 2 2 2 1 1 1 2 3 5 4 4 4 5 5 5 5 5 5 6 6 7 7 7 6 6 6 6 7 6 7 7 7 7 8
-9 -8 -7 -3 -2 -4 -3 -1 -1 0 0 1 1 1 2 1 1 1 1 2 4 4 4 4 4 5 5 5 5 5 5 6 6 7 7 7 6 6 6 6 6 6 6 6 5 4 5
-10 -9 -9 -8 -5 -4 -2 -1 -1 0 -0 0 0 1 1 1 1 1 1 2 4 4 5 5 5 5 5 5 5 5 5 6 6 7 7 7 6 6 6 6 5 5 5 5 5 5 6
-10 -10 -9 -8 -6 -4 -2 -1 -1 -0 -1 -1 -0 0 1 1 1 1 1 2 4 4 4 4 5 5 5 5 5 5 5 6 6 6 6 6 7 5 5 5 6 5 5 5 5 5 7
-10 -10 -9 -9 -7 -5 -3 -3 -1 -1 -1 -1 -0 -1 1 1 0 1 1 2 4 4 5 4 4 5 5 4 5 5 5 5 6 6 6 6 6 5 5 5 5 5 5 5 6 5 3
-10 -10 -9 -9 -7 -5 -3 -4 -2 -2 -1 -0 -1 -2 0 0 -0 1 1 3 3 4 5 5 5 5 5 5 5 5 5 5 5 5 5 5 5 5 5 4 4 4 4 4 5 5 4
-10 -10 -10 -9 -9 -5 -4 -3 -3 -2 -1 -1 -1 -1 -0 -0 0 1 2 2 3 4 4 5 5 5 5 5 5 5 5 5 5 5 5 5 5 5 6 7 6 4 5 5 4 4 5
-10 -10 -9 -9 -7 -5 -4 -3 -2 -2 -2 -1 -1 -0 -0 -0 1 1 2 3 3 4 4 5 5 5 5 5 5 5 5 5 5 5 5 5 4 5 5 5 5 5 5 4 4 5 4
-10 -10 -9 -9 -6 -5 -5 -4 -2 -2 -2 -1 -1 -1 -1 0 1 1 2 3 3 4 4 5 5 5 5 5 6 6 5 5 5 5 5 4 4 4 4 5 5 5 5 4 4 4 4
-10 -10 -7 -6 -5 -5 -4 -3 -2 -2 -2 -1 -1 -0 0 1 1 2 2 3 3 4 4 5 5 5 5 5 5 5 5 5 5 5 5 4 4 4 3 4 4 3 5 5 5 6 6
-9 -7 -7 -6 -5 -4 -3 -3 -2 -2 -1 -1 -1 0 1 1 1 2 2 3 4 3 4 4 5 5 5 4 4 4 4 4 4 4 4 4 4 4 3 3 2 5 5 6 5 6 5
-7 -7 -5 -5 -4 -3 -3 -2 -2 -2 -1 -1 -0 0 1 1 2 2 2 3 3 3 4 4 4 4 4 4 4 4 3 3 3 3 3 3 3 3 3 2 4 5 5 5 5 5 5
-6 -5 -5 -4 -4 -3 -2 -2 -1 -1 -1 -1 -0 0 1 1 2 2 2 3 3 3 4 4 4 3 3 3 3 3 3 3 2 2 3 3 3 2 2 2 2 4 5 4 4 3 3
-6 -5 -4 -4 -3 -2 -2 -1 -1 -1 -1 -1 -0 0 1 1 2 2 2 3 3 3 4 4 4 3 3 3 3 3 3 3 3 3 3 2 2 2 2 1 3 4 3 2 2 2 2
-4 -3 -3 -3 -2 -2 -1 -1 -1 -1 -1 -1 0 0 1 1 2 2 3 3 3 3 4 4 3 3 3 2 2 3 3 3 2 3 3 3 3 3 2 1 2 3 2 1 1 1 1
-3 -3 -2 -2 -2 -1 -1 -1 -1 -1 -1 -0 -0 0 1 1 1 2 3 3 3 3 3 3 3 3 3 3 2 2 2 2 2 2 3 2 2 3 2 2 2 2 1 1 1 1 1

GFSGBSN_700_temp_039.txt.gz
Temp
5 5 4 4 4 4 4 5 5 5 5 5 5 5 6 6 5 6 5 5 5 5 5 5 5 5 6 6 5 5 5 5 5 5 5 4 5 6 7 7 8 8 9 8 8 8 7
4 4 4 4 4 4 4 4 4 4 5 5 5 5 5 5 5 6 5 5 5 5 5 5 5 6 6 6 4 5 5 5 5 5 5 5 5 6 7 7 8 8 8 8 7 7 7
4 4 4 4 4 4 3 3 4 4 4 4 5 5 5 5 5 5 5 5 5 5 5 5 5 6 6 5 5 5 5 5 5 5 5 5 5 5 6 7 7 7 8 7 7 8 7
3 3 4 4 4 4 3 3 3 3 4 4 4 5 5 5 5 5 5 5 5 5 5 5 5 6 6 5 5 5 5 5 6 6 6 5 5 5 5 6 7 8 8 8 8 8 8
3 3 3 3 3 3 3 3 3 3 3 4 4 4 4 4 5 5 5 5 5 4 4 5 5 5 5 5 5 5 5 5 6 6 6 6 6 6 6 6 8 8 9 9 8 8 8
3 3 3 3 4 4 3 3 2 2 3 3 3 4 4 4 4 4 5 5 4 4 4 5 5 5 5 5 5 5 5 6 6 6 6 6 6 6 7 7 8 9 9 10 9 8 8
3 3 3 4 4 4 3 2 2 2 2 3 3 4 4 4 4 4 4 4 4 4 4 5 3 5 4 4 5 6 5 6 6 6 7 7 7 8 8 8 9 9 10 10 10 9 8
2 2 3 3 4 4 3 2 2 1 2 2 3 3 3 4 4 4 4 3 1 3 4 4 5 5 5 5 5 6 5 6 6 7 7 7 7 8 8 8 9 9 10 10 9 8 9
2 2 3 3 3 4 4 2 2 1 1 2 3 3 3 3 3 3 3 3 3 3 4 4 5 5 5 5 5 6 6 7 6 6 8 7 8 8 8 8 9 9 9 8 9 8 8
2 2 2 2 3 3 4 3 2 1 1 1 2 3 3 3 3 3 3 2 2 3 3 5 4 5 5 5 5 6 6 6 6 6 6 6 7 8 8 9 8 8 9 9 9 9 10
2 2 2 2 2 3 4 3 2 0 0 1 2 2 2 2 3 2 1 2 2 3 6 6 5 5 5 5 6 6 5 6 7 7 7 8 7 8 8 8 8 7 8 9 9 10 9
1 1 2 2 2 3 3 3 2 0 -0 1 2 2 2 3 3 2 2 2 2 2 5 5 5 5 5 5 6 7 6 6 6 7 7 6 7 8 8 8 8 8 8 8 8 9 10
1 1 1 2 2 3 3 3 1 -0 -0 0 1 2 2 2 2 2 2 1 2 4 6 6 6 5 6 6 6 6 6 6 7 7 7 7 7 7 7 7 7 7 8 9 9 10 10
-1 0 0 1 2 2 3 3 1 -1 -1 -0 1 2 2 2 2 1 1 1 3 6 6 6 6 6 6 6 6 6 7 7 7 7 8 8 8 7 7 8 8 8 8 9 8 9 10
-7 -4 -2 -0 1 1 2 2 0 -2 -1 -1 0 1 2 2 2 1 1 1 4 6 6 6 6 6 6 6 6 6 6 7 7 7 7 7 8 6 7 6 7 8 8 7 8 7 7
-9 -9 -7 -4 -2 -0 1 1 -1 -3 -2 -1 0 1 2 1 1 1 1 2 4 5 6 6 6 6 7 6 6 6 7 7 7 7 6 8 8 6 6 6 6 6 7 7 7 7 8
-9 -9 -8 -9 -8 -3 -1 -0 -3 -2 -1 -1 -0 -0 1 1 1 0 -0 2 4 5 5 5 6 6 7 7 6 7 7 6 6 6 7 8 8 6 5 6 8 6 6 7 7 7 8
-9 -9 -9 -9 -9 -9 -6 -4 -3 -2 -2 -2 -1 -2 1 0 0 0 0 2 4 4 4 5 5 6 6 7 7 7 7 7 6 6 6 7 7 7 7 6 6 6 7 7 7 8 6
-10 -9 -9 -9 -9 -9 -8 -6 -3 -2 -2 -2 -2 -2 -1 0 -1 -0 1 3 4 4 4 5 5 6 6 6 6 6 7 6 6 6 6 6 6 7 7 6 6 6 6 6 7 5 6
-11 -10 -10 -9 -9 -9 -8 -5 -3 -2 -3 -3 -3 -2 -1 0 -1 1 2 3 3 4 5 5 5 5 5 6 6 6 6 5 5 5 6 5 6 7 7 8 7 6 6 6 6 5 6
-11 -10 -10 -10 -9 -9 -9 -6 -5 -3 -4 -4 -2 -1 -0 -1 -0 1 2 3 3 4 4 4 5 5 5 5 5 5 5 5 5 5 5 5 5 6 6 6 5 6 6 6 6 6 6
-10 -10 -10 -10 -9 -10 -9 -7 -5 -5 -4 -3 -2 -0 -0 -1 0 0 2 3 4 5 4 4 5 5 6 6 5 5 5 4 4 5 5 5 5 5 4 5 4 5 5 6 6 6 6
-10 -10 -10 -10 -9 -9 -9 -7 -4 -5 -4 -3 -1 0 0 0 0 1 2 3 4 4 4 5 5 6 5 5 5 5 5 5 5 5 5 4 4 4 4 4 4 4 6 5 6 6 6
-10 -10 -10 -10 -10 -9 -8 -7 -5 -4 -3 -2 -1 -1 0 0 1 1 3 3 4 3 4 5 5 5 5 5 5 5 5 5 5 5 4 4 4 3 4 3 2 6 6 6 5 5 6
-10 -10 -10 -10 -9 -8 -8 -5 -4 -4 -2 -1 -1 -0 1 1 1 2 3 3 3 3 4 4 5 5 5 5 4 4 4 4 4 4 4 4 3 3 3 4 5 5 5 5 4 5 4
-10 -10 -9 -9 -9 -5 -6 -4 -3 -2 -2 -1 -1 -1 0 1 1 2 2 3 2 3 4 4 4 4 4 4 4 3 4 4 3 3 3 3 3 2 2 2 1 4 5 4 4 3 2
-9 -9 -8 -7 -7 -5 -5 -4 -3 -3 -2 -1 -1 0 1 1 2 2 2 2 3 3 3 4 4 4 4 4 3 3 3 4 3 3 3 2 2 2 1 1 3 3 3 3 3 2 2
-8 -7 -6 -6 -5 -5 -4 -3 -2 -2 -2 -1 -0 -0 1 1 1 2 1 2 2 3 3 3 4 4 4 3 2 3 3 3 3 3 3 3 3 2 1 1 1 2 2 2 1 2 1
-6 -6 -5 -5 -4 -3 -2 -2 -2 -2 -1 -1 -1 0 1 1 2 2 2 2 2 2 3 3 3 4 4 2 3 2 3 3 2 3 3 2 2 2 2 3 2 2 1 1 1 1 1

GFSGBSN_700_temp_042.txt.gz
Temp
4 4 5 5 4 5 5 4 4 4 5 5 5 5 5 5 6 6 6 6 6 6 6 6 6 6 6 6 6 5 6 6 6 6 6 5 5 6 7 8 8 8 9 9 9 8 8
3 4 4 5 4 4 4 4 4 4 4 4 5 5 5 5 5 5 6 5 5 6 6 6 6 6 6 6 4 4 5 6 6 5 5 5 6 6 7 8 8 9 9 9 8 8 8
3 3 4 4 4 4 4 4 4 3 4 4 4 4 5 5 5 5 5 5 5 6 6 6 6 6 6 6 5 4 5 5 5 5 4 5 6 6 7 7 8 8 8 8 8 8 7
3 3 3 3 4 4 4 4 3 3 3 3 4 4 4 5 5 5 5 5 5 6 5 5 6 6 6 6 6 5 5 5 5 5 5 5 5 5 6 6 7 8 8 8 8 8 8
3 3 3 3 3 4 4 4 3 3 3 3 3 3 4 4 5 5 5 5 5 5 5 5 5 5 5 6 6 6 5 5 5 6 6 5 6 6 5 6 7 8 8 8 8 9 9
2 3 3 3 3 3 4 4 3 3 3 3 3 3 4 4 4 4 4 5 5 5 5 5 5 5 6 6 5 5 6 5 6 6 6 6 5 6 6 7 8 7 8 9 9 9 9
2 2 3 3 3 3 3 3 4 3 2 3 2 3 3 4 4 4 4 4 4 3 4 5 4 5 5 5 5 5 6 6 6 6 6 6 6 7 8 7 7 8 9 9 10 10 9
2 2 2 2 3 3 3 3 3 3 3 2 2 2 3 3 4 4 4 4 2 3 4 5 5 5 5 5 5 6 6 6 6 6 6 6 7 7 6 7 8 9 9 9 10 9 9
1 2 2 2 2 3 3 3 3 3 3 2 2 2 2 3 4 3 3 3 3 3 3 4 5 5 5 5 5 6 6 7 7 7 6 5 7 6 8 8 9 9 7 8 8 9 9
1 1 1 2 2 2 3 3 3 3 3 2 2 1 2 3 3 3 3 3 3 3 3 5 4 5 5 5 5 6 7 7 7 7 6 6 6 7 8 9 9 9 7 8 8 9 9
1 1 1 1 2 2 2 2 3 2 3 2 1 1 2 2 3 2 1 2 2 2 4 7 5 5 6 5 7 6 7 7 6 7 7 6 6 7 8 8 8 8 8 8 9 10 9
1 1 1 1 1 2 2 2 2 3 2 2 0 0 1 3 3 1 3 2 2 2 5 6 6 6 6 6 6 7 6 6 7 7 7 5 5 6 8 8 8 8 8 8 9 9 7
1 1 1 1 1 1 2 2 2 3 2 1 -0 -0 1 2 2 0 2 2 1 3 6 7 6 6 6 6 6 7 7 6 7 7 7 7 7 8 8 8 8 8 9 9 3 3 9
0 1 1 1 1 2 2 2 2 3 2 1 -1 -0 0 2 1 2 1 1 2 5 6 7 7 6 6 7 7 7 7 7 7 7 8 8 8 8 8 8 8 7 8 6 5 3 9
-1 0 0 1 1 1 2 2 2 2 2 1 -2 -1 0 1 1 1 1 0 2 5 6 7 7 7 7 7 7 7 7 7 7 7 8 6 6 6 7 8 8 7 8 8 8 8 8
-7 -5 -2 -0 0 1 1 1 2 2 1 -0 -2 -1 0 1 1 1 1 0 2 6 7 7 7 7 7 7 7 7 7 7 8 8 8 6 4 5 6 7 7 8 8 8 8 7 7
-11 -11 -9 -5 -3 -1 0 1 1 2 0 -2 -2 -1 -0 0 -0 -0 -0 0 3 4 6 6 7 7 7 8 7 7 7 8 8 8 7 6 6 4 6 7 8 7 7 8 8 8 7
-11 -11 -11 -10 -9 -7 -3 -1 0 1 -1 -2 -2 -2 -0 -0 -1 0 -1 1 3 4 5 5 6 7 7 8 8 7 8 8 7 7 7 7 7 7 7 8 7 7 7 8 7 7 7
-11 -11 -11 -10 -9 -9 -9 -7 -2 -1 -2 -2 -2 -2 -1 -0 -1 0 -1 0 2 3 4 5 5 6 7 7 8 7 8 7 7 6 7 7 7 7 7 8 7 7 7 7 7 7 7
-11 -11 -11 -9 -9 -8 -9 -8 -6 -4 -3 -2 -2 -2 -2 -1 -0 -1 -1 1 2 3 5 5 5 6 7 7 7 7 7 7 6 6 6 6 6 7 7 8 8 8 7 7 7 6 6
-12 -11 -11 -9 -8 -8 -8 -8 -9 -5 -3 -3 -3 -2 -2 -1 -0 -1 -0 2 3 4 4 5 5 6 6 6 7 7 7 6 6 6 6 6 6 6 7 7 7 6 7 7 7 7 7
-12 -12 -11 -10 -9 -8 -8 -9 -9 -5 -3 -4 -3 -2 -1 -1 -1 -1 0 2 3 4 5 5 6 6 6 6 6 6 6 5 5 5 5 5 5 6 5 6 6 6 6 6 7 7 7
-12 -12 -11 -10 -9 -9 -9 -9 -8 -5 -5 -4 -3 -1 -1 -0 -0 -0 1 2 3 5 5 5 5 6 6 6 6 6 6 6 5 5 5 5 5 4 4 5 4 5 5 6 6 6 7
-12 -11 -10 -10 -10 -9 -9 -8 -8 -7 -6 -4 -2 -1 -1 -0 -0 1 1 1 3 4 4 5 5 6 6 6 6 6 5 5 5 4 4 4 4 4 4 4 3 5 6 6 6 6 6
-11 -11 -10 -10 -10 -10 -9 -8 -8 -8 -6 -5 -3 -1 -1 -1 0 0 1 2 3 4 4 4 5 5 6 6 5 5 5 5 4 4 4 4 3 3 3 3 4 5 5 5 5 5 4
-11 -10 -10 -10 -10 -9 -9 -8 -6 -8 -5 -4 -2 -1 -1 -1 0 2 2 2 4 4 3 2 5 5 5 5 4 4 4 4 4 3 4 4 3 3 2 3 1 4 5 5 4 4 2
-10 -10 -10 -10 -10 -9 -8 -7 -8 -5 -5 -3 -1 -1 -0 -1 1 2 3 3 3 3 1 3 5 5 5 5 4 4 4 5 4 3 2 2 2 2 2 2 3 3 3 4 3 2 2
-10 -10 -10 -10 -9 -9 -8 -8 -6 -5 -3 -1 -2 -2 -1 0 1 2 3 3 3 2 -0 4 4 4 4 4 4 3 3 4 4 4 3 3 3 2 1 1 1 2 3 2 2 2 2
-9 -10 -10 -9 -9 -8 -7 -4 -5 -3 -2 -2 -2 0 0 0 1 2 2 3 2 2 1 4 4 4 4 4 3 3 3 3 3 3 3 3 3 2 3 3 2 2 2 1 1 2 1

GFSGBSN_700_temp_045.txt.gz
Temp
4 4 4 5 5 5 5 5 5 5 5 5 5 6 5 5 5 6 6 6 6 6 6 6 7 7 7 6 6 6 6 6 6 6 6 5 5 6 6 7 7 8 8 8 8 8 8
3 3 4 4 4 5 5 5 5 5 5 5 5 5 5 5 5 5 5 6 6 6 6 6 7 7 7 6 5 6 5 6 5 5 5 5 6 6 6 6 7 8 8 8 8 8 7
2 3 3 3 4 4 4 4 4 4 4 4 5 5 5 5 5 5 5 5 6 6 6 6 7 7 7 6 5 5 6 5 6 6 5 5 5 6 6 7 7 8 8 8 8 8 7
2 2 2 2 3 3 4 4 4 4 4 4 4 5 4 4 5 5 5 5 5 5 6 6 6 6 7 6 6 6 6 6 5 5 6 5 5 5 6 6 7 7 8 8 8 8 7
2 2 2 2 3 3 3 3 4 4 4 4 4 4 4 4 4 4 5 5 5 5 6 6 6 6 6 6 7 6 6 6 5 5 5 5 5 5 6 6 7 8 8 8 8 8 7
2 2 2 2 3 3 3 3 3 3 4 4 4 4 3 3 4 4 5 5 5 5 5 5 6 6 6 6 6 6 6 5 5 5 5 5 5 6 6 6 6 8 8 8 8 8 8
2 2 2 2 2 3 3 3 3 3 3 3 3 3 3 3 3 4 4 4 4 4 5 5 5 5 5 5 5 6 6 6 6 5 5 5 5 6 6 7 7 7 8 8 8 9 9
1 2 2 2 2 2 3 3 3 3 3 3 3 3 3 2 3 3 4 4 3 4 6 5 5 6 5 5 5 6 6 6 6 6 6 6 5 6 7 7 7 7 7 7 8 9 9
1 1 1 2 2 2 2 3 3 3 3 3 3 3 2 2 2 3 4 3 3 4 3 6 6 6 5 5 6 6 6 6 6 6 6 6 6 6 5 7 7 6 8 8 8 9 9
1 1 1 1 2 2 2 2 3 2 2 3 3 3 2 1 2 3 2 3 3 3 3 7 6 6 6 5 5 6 6 6 6 6 6 5 6 6 6 6 7 7 8 8 8 8 8
0 0 1 1 1 2 2 2 2 2 2 2 2 3 2 0 2 2 3 3 2 2 0 6 6 5 6 6 6 6 6 6 7 7 6 6 7 6 6 6 7 8 8 8 7 7 7
0 0 0 1 1 1 2 2 2 2 2 2 2 2 2 1 2 0 1 2 2 2 1 6 6 5 5 6 6 6 6 6 7 7 7 6 6 6 6 7 8 8 8 8 8 7 6
0 0 0 0 1 1 1 2 2 2 2 2 2 2 1 0 1 -0 1 1 1 1 6 6 6 5 5 6 6 6 7 6 6 6 6 6 7 6 7 7 7 8 8 6 4 3 3
-1 -0 0 0 0 1 1 1 1 1 1 2 1 2 -0 0 -0 -0 1 -0 0 4 6 7 6 6 6 6 6 6 7 6 6 7 7 6 6 5 6 7 8 8 7 7 3 2 2
-9 -3 -1 -0 -0 1 1 1 1 1 1 1 1 1 -0 -0 -1 0 0 -1 1 5 7 7 7 6 6 6 6 7 7 7 7 7 7 6 6 6 6 7 6 7 7 7 7 5 4
-11 -10 -5 -1 -1 -0 1 1 1 1 1 1 1 0 1 -1 -1 -0 -0 0 1 6 6 6 7 7 6 6 7 7 7 7 7 7 7 7 5 5 5 6 7 7 7 7 8 5 5
-10 -11 -11 -5 -3 -1 0 0 1 1 0 0 -1 -1 -1 -1 -2 -1 -0 -2 1 6 5 5 7 7 7 7 7 7 7 7 7 7 7 7 7 5 5 6 7 7 7 7 7 7 2
-11 -11 -12 -11 -8 -4 -1 -1 -0 0 -0 -1 -1 -3 -3 -1 -2 -1 0 -0 0 6 5 4 5 6 7 7 7 7 7 7 7 7 7 7 7 5 6 7 6 7 7 7 7 7 7
-11 -11 -12 -13 -12 -11 -8 -4 -3 -1 -0 -1 -2 -5 -3 -2 -1 0 -1 -0 1 5 5 4 5 6 7 7 7 7 7 7 8 7 7 7 7 5 5 6 6 7 7 7 7 7 7
-12 -12 -13 -12 -11 -11 -11 -10 -8 -6 -2 -3 -5 -4 -3 -2 -1 -0 -0 -1 1 4 4 4 4 6 6 7 7 7 7 7 7 7 7 7 6 7 6 7 7 7 7 7 7 7 7
-12 -13 -13 -12 -11 -10 -10 -10 -9 -9 -7 -6 -5 -4 -2 -2 -1 -2 -1 -0 1 3 3 4 4 5 6 6 7 7 7 7 6 6 6 6 6 6 6 6 6 6 7 6 6 7 7
-13 -13 -12 -12 -11 -11 -10 -9 -9 -8 -8 -6 -4 -4 -3 -2 -1 -2 -2 -1 2 3 3 4 3 5 6 6 6 7 7 6 6 6 6 6 6 6 5 6 6 6 6 6 6 6 7
-13 -12 -12 -11 -11 -11 -10 -8 -8 -8 -8 -6 -4 -4 -3 -1 -2 -2 0 -1 2 2 3 4 4 5 5 6 6 6 7 6 6 6 6 5 5 5 5 5 5 5 6 6 6 6 6
-12 -11 -12 -11 -11 -11 -10 -8 -8 -8 -8 -6 -4 -3 -3 -2 -2 1 0 -1 1 3 3 4 5 5 5 5 6 6 6 6 5 5 5 5 4 4 4 4 -0 5 5 5 5 5 5
-12 -12 -12 -11 -11 -10 -9 -9 -9 -8 -8 -5 -5 -3 -2 -2 -1 -1 -0 0 2 3 3 3 5 5 5 6 5 5 5 5 4 4 4 4 4 4 3 3 4 5 5 5 5 4 4
-12 -12 -12 -11 -10 -10 -9 -8 -8 -8 -6 -6 -4 -3 -1 -1 -1 -0 -0 0 2 3 3 3 4 5 4 5 5 5 4 4 4 4 4 4 4 3 3 3 -2 4 4 5 4 3 3
-12 -11 -10 -10 -10 -9 -9 -9 -8 -8 -7 -7 -4 -3 -2 -0 -1 -1 0 1 2 3 3 3 4 4 3 4 4 5 5 5 4 4 4 3 2 3 2 3 3 3 4 4 4 2 2
-12 -11 -10 -10 -10 -9 -9 -8 -8 -7 -6 -6 -4 -3 -2 -2 -1 -1 -0 2 2 2 3 2 3 1 2 4 4 4 4 5 4 4 4 3 2 2 1 2 2 3 3 3 2 2 2
-11 -11 -10 -10 -9 -9 -9 -9 -8 -8 -6 -6 -4 -2 -2 -2 -1 -1 -0 1 2 3 2 3 3 3 1 4 4 4 4 4 4 3 3 3 3 3 3 3 2 2 2 2 2 2 2